Location: Bu�n Treun
(12.1333°N, 108.3167°E)
Time: 03:02:15
(UTC+00:00)

Envisat - Visible Passes

Search period start: 25 June 2021 00:00
Search period end: 05 July 2021 00:00
Orbit: 764 x 766 km, 98.1° (Epoch: 24 June)

Date Brightness Start Highest point End Pass type
(mag) Time Alt. Az. Time Alt. Az. Time Alt. Az.
25 Jun 4.9 21:13:36 10° NE 21:17:54 28° E 21:22:12 10° SSE visible
27 Jun 3.6 21:38:15 10° NNE 21:43:14 58° ESE 21:48:13 10° S visible
28 Jun 5.4 21:02:42 10° NE 21:06:25 21° E 21:10:10 10° SSE visible
30 Jun 4.2 21:26:59 10° NNE 21:31:46 42° E 21:36:33 10° S visible
01 Jul 5.6 20:52:04 10° ENE 20:54:57 15° E 20:57:49 10° SE visible
02 Jul 3.1 21:52:00 10° NNE 21:57:05 88° E 22:02:10 10° SSW visible
03 Jul 4.7 21:15:51 10° NE 21:20:18 31° E 21:24:45 10° SSE visible
04 Jul 5.9 20:42:21 10° E 20:43:28 11° E 20:44:36 10° ESE visible
